Starlink 31727

operational
NORAD ID: 59638 Int'l Des: 2024-082 Owner: SPXS Country: US Constellation: starlink
LEOCIRCULAR

About Starlink 31727

Description loading...

Live Position

Loading 3D Globe...

Upcoming Passes

Altitude History

Altitude vs Time

uPlot chart will show altitude changes over time

Two-Line Element Set

1 59638U 24082H 26048.00320051 -.00000590 00000-0 -11919-4 0 9999
2 59638 43.0005 257.0260 0001023 276.6328 83.4408 15.27573103101695
Epoch: Feb 17, 2026 • Age: 30 hours

Current Status

Altitude 492.4 km
Velocity 7.62 km/s
Sub-Earth Point -34.92°S, 30.93°W
Launch Date May 3, 2024
Age 1.7 years
Type internet

Technical Details

Classification Payload
Mass 730.00 kg
Dry Mass 700.00 kg
Total Mass 730.00 kg
Length 0.30 m
Diameter 4.10 m
Span 29.00 m
Shape Box + pan
Manufacturer SPXS
Bus Type Starlink V2M
Phase Status In Orbit
Owner/State SPXS/US

Large Constellations

Loading constellations...